This demonstration page uses our WeatherBlox Daily Observations layout. Learn more.

Left ArrowRight Arrow

Hourly Observations for March 6, 2015

Temp ( °F °C ) Dew Point ( °F °C ) Humidity (%) Winds ( mph kmh ) Pressure ( in mb ) Visibility ( mi km ) Precip ( " mm )
12:15 am 00:15 Clear 5 -15 -6 -21 60 60 WNW 5 7 30.65 1038 10 16 N/A
12:36 am 00:36 Clear 3 -16 -11 -24 50 50 N N/A 30.65 1038 10 16 N/A
12:56 am 00:56 Clear 5 -15 -6 -21 60 60 N N/A 30.62 1037 10 16 N/A
1:15 am 01:15 Clear 3 -16 -6 -21 66 66 N N/A 30.65 1038 10 16 N/A
1:36 am 01:36 Clear 3 -16 -6 -21 66 66 N N/A 30.65 1038 10 16 N/A
1:55 am 01:55 Clear N/A -8 -22 71 71 N N/A 30.68 1039 10 16 N/A
2:15 am 02:15 Clear N/A -8 -22 71 71 N N/A 30.65 1038 10 16 N/A
2:36 am 02:36 Clear -4 -20 -13 -25 65 65 N N/A 30.65 1038 10 16 N/A
2:55 am 02:55 Clear -2 -19 -11 -24 65 65 N N/A 30.65 1038 10 16 N/A
3:16 am 03:16 Clear -4 -20 -11 -24 71 71 N N/A 30.65 1038 10 16 N/A
3:35 am 03:35 Clear N/A -9 -23 65 65 N N/A 30.65 1038 10 16 N/A
3:55 am 03:55 Clear -2 -19 -11 -24 65 65 N N/A 30.65 1038 10 16 N/A
4:16 am 04:16 Clear -2 -19 -11 -24 65 65 N N/A 30.65 1038 7 11 N/A
4:35 am 04:35 Clear -4 -20 -11 -24 71 71 N N/A 30.65 1038 10 16 N/A
4:56 am 04:56 Clear -4 -20 -13 -25 65 65 S 3 6 30.65 1038 10 16 N/A
5:16 am 05:16 Clear -4 -20 -13 -25 65 65 N N/A 30.65 1038 7 11 N/A
5:35 am 05:35 Clear -2 -19 -11 -24 65 65 N N/A 30.65 1038 10 16 N/A
5:56 am 05:56 Clear -4 -20 -13 -25 65 65 N N/A 30.65 1038 7 11 N/A
6:16 am 06:16 Clear -4 -20 -13 -25 65 65 N N/A 30.65 1038 10 16 N/A
6:35 am 06:35 Clear -4 -20 -13 -25 65 65 N N/A 30.65 1038 10 16 N/A
6:56 am 06:56 Clear -4 -20 -13 -25 65 65 N N/A 30.65 1038 10 16 N/A
7:16 am 07:16 Sunny -4 -20 -13 -25 65 65 N N/A 30.65 1038 10 16 N/A
7:35 am 07:35 Mostly Cloudy -4 -20 -13 -25 65 65 N N/A 30.65 1038 2 2 N/A
7:56 am 07:56 Sunny -2 -19 -11 -24 65 65 N N/A 30.65 1038 10 16 N/A
8:16 am 08:16 Sunny 1 -17 -8 -22 65 65 SSE 3 6 30.65 1038 7 11 N/A
8:35 am 08:35 Sunny 5 -15 -2 -19 72 72 S 3 6 30.62 1037 7 11 N/A
8:56 am 08:56 Sunny 7 -14 N/A 72 72 S 5 7 30.62 1037 10 16 N/A
9:16 am 09:16 Sunny 10 -12 1 -17 67 67 S 7 11 30.62 1037 10 16 N/A
9:35 am 09:35 Sunny 10 -12 1 -17 67 67 S 7 11 30.62 1037 10 16 N/A
9:56 am 09:56 Sunny 12 -11 N/A 57 57 SSE 8 13 30.62 1037 10 16 N/A
10:15 am 10:15 Sunny 14 -10 -2 -19 48 48 S 7 11 30.62 1037 10 16 N/A
10:36 am 10:36 Sunny 16 -9 -2 -19 45 45 S 12 19 30.62 1037 10 16 N/A
10:56 am 10:56 Sunny 18 -8 N/A 45 45 S 12 19 30.56 1035 10 16 N/A
11:15 am 11:15 Sunny 18 -8 N/A 45 45 SSW 9 15 30.56 1035 10 16 N/A
11:36 am 11:36 Sunny 19 -7 N/A 42 42 SSW 13 20 30.56 1035 10 16 N/A
11:56 am 11:56 Sunny 19 -7 1 -17 45 45 SSW 9 15 30.56 1035 10 16 N/A
12:15 pm 12:15 Sunny 21 -6 1 -17 42 42 S 12 19 30.56 1035 10 16 N/A
12:36 pm 12:36 Sunny 21 -6 1 -17 42 42 S 12 19 30.53 1034 10 16 N/A
12:55 pm 12:55 Sunny 23 -5 3 -16 42 42 S 12 19 30.53 1034 10 16 N/A
1:15 pm 13:15 Sunny 23 -5 1 -17 39 39 S 10 17 30.50 1033 10 16 N/A
1:36 pm 13:36 Sunny 25 -4 3 -16 39 39 S 12 19 30.48 1032 10 16 N/A
1:55 pm 13:55 Sunny 25 -4 3 -16 39 39 S 12 19 30.48 1032 10 16 N/A
2:16 pm 14:16 Sunny 27 -3 3 -16 36 36 S 10 17 30.48 1032 7 11 N/A
2:36 pm 14:36 Sunny 27 -3 3 -16 36 36 S 14 22 30.45 1031 10 16 N/A
2:55 pm 14:55 Sunny 27 -3 3 -16 36 36 S 13 20 30.45 1031 10 16 N/A
3:16 pm 15:16 Sunny 27 -3 3 -16 36 36 S 13 20 30.45 1031 10 16 N/A
3:36 pm 15:36 Sunny 27 -3 3 -16 36 36 S 12 19 30.42 1030 10 16 N/A
3:55 pm 15:55 Sunny 28 -2 3 -16 34 34 SSE 12 19 30.39 1029 10 16 N/A
4:16 pm 16:16 Sunny 28 -2 5 -15 37 37 S 10 17 30.39 1029 10 16 N/A
4:36 pm 16:36 Sunny 28 -2 5 -15 37 37 S 10 17 30.36 1028 10 16 N/A
4:55 pm 16:55 Sunny 28 -2 5 -15 37 37 SSE 12 19 30.36 1028 10 16 N/A
5:16 pm 17:16 Sunny 27 -3 5 -15 39 39 S 13 20 30.39 1029 10 16 N/A
5:36 pm 17:36 Sunny 27 -3 7 -14 43 43 SSE 12 19 30.36 1028 10 16 N/A
5:55 pm 17:55 Sunny 27 -3 7 -14 43 43 S 12 19 30.36 1028 10 16 N/A
6:16 pm 18:16 Sunny 25 -4 7 -14 46 46 S 9 15 30.36 1028 10 16 N/A
6:36 pm 18:36 Sunny 25 -4 7 -14 46 46 S 9 15 30.36 1028 10 16 N/A
6:55 pm 18:55 Clear 25 -4 7 -14 46 46 S 9 15 30.36 1028 10 16 N/A
7:16 pm 19:16 Clear 23 -5 7 -14 50 50 S 9 15 30.36 1028 10 16 N/A
7:36 pm 19:36 Clear 23 -5 7 -14 50 50 S 8 13 30.36 1028 10 16 N/A
7:55 pm 19:55 Clear 23 -5 5 -15 46 46 S 9 15 30.39 1029 10 16 N/A
8:16 pm 20:16 Clear 23 -5 5 -15 46 46 S 8 13 30.36 1028 10 16 N/A
8:36 pm 20:36 Clear 23 -5 5 -15 46 46 SSW 8 13 30.39 1029 10 16 N/A
8:55 pm 20:55 Clear 23 -5 5 -15 46 46 S 8 13 30.36 1028 10 16 N/A
9:16 pm 21:16 Clear 21 -6 5 -15 49 49 S 8 13 30.36 1028 10 16 N/A
9:36 pm 21:36 Clear 21 -6 5 -15 49 49 S 7 11 30.36 1028 10 16 N/A
9:55 pm 21:55 Clear 21 -6 3 -16 45 45 S 7 11 30.36 1028 10 16 N/A
10:16 pm 22:16 Clear 21 -6 1 -17 42 42 S 6 9 30.36 1028 10 16 N/A
10:36 pm 22:36 Clear 21 -6 N/A 38 38 S 7 11 30.36 1028 10 16 N/A
10:55 pm 22:55 Clear 21 -6 N/A 38 38 S 8 13 30.36 1028 10 16 N/A
11:16 pm 23:16 Clear 21 -6 -2 -19 35 35 S 8 13 30.36 1028 10 16 N/A
11:36 pm 23:36 Clear 21 -6 -2 -19 35 35 S 8 13 30.36 1028 10 16 N/A
11:55 pm 23:55 Clear 21 -6 -2 -19 35 35 SSW 7 11 30.36 1028 10 16 N/A

Powered by AerisWeather